Terminal Aerodrome Forecast
Issued by NWS Mt. Holly, NJ

Home | Current Version | Previous Version | Text Only | Print | Product List | Glossary On
Versions: 1 2 3 4 5 6 7 8 9 10 11 12 13 14 15 16 17 18 19 20 21 22 23 24 25 26 27 28 29 30 31 32 33 34 35 36 37 38 39 40 41 42 43 44 45 46 47
892
FTAK31 PANC 211740
TAFABE
TAF
PABE 211740Z 2118/2218 03015KT P6SM BKN100
     FM212000 04018G28KT 6SM -SN SCT015 BKN025
     FM220100 06014KT 1SM -SN BR BKN007
     FM220800 20008G15KT 4SM -SN BR SCT005 BKN010
     FM221200 34012KT 5SM -SHSN SCT010 BKN025=

USA.gov is the U.S. government's official web portal to all federal, state and local government web resources and services.